SWA1013 MZBZ-KHOU

Flight info

Callsign SWA1013
Flight time 1h 8m
Altitude 36000
Route LITRA1D LITRA UR899 CTM UJ26 MID UL208 DUTNA L208 PEGLG BAYYY5
Aircraft B737/M-SDE2E3FGHIRWXY/LB1

Departure

Time 2026-04-16 21:34
Airport Philip S. W. Goldson International Airport (MZBZ)

Arrival

Time 2026-04-16 22:42
Airport William P. Hobby Airport (KHOU)
Time Latitude Longitude Altitude Speed Heading
2026-04-16 21:15 17.53701 -88.30692 16 ft 0 kts 167°
2026-04-16 21:27 17.53702 -88.30692 16 ft 2 kts 167°
2026-04-16 21:27 17.53728 -88.30697 20 ft 4 kts 173°
2026-04-16 21:28 17.53754 -88.30699 17 ft 4 kts 184°
2026-04-16 21:28 17.53774 -88.30696 17 ft 0 kts 194°
2026-04-16 21:30 17.53763 -88.30706 17 ft 9 kts 238°
2026-04-16 21:30 17.53744 -88.30785 16 ft 12 kts 257°
2026-04-16 21:30 17.53728 -88.30867 16 ft 11 kts 259°
2026-04-16 21:31 17.53710 -88.30942 16 ft 10 kts 250°
2026-04-16 21:31 17.53693 -88.31013 16 ft 11 kts 258°
2026-04-16 21:31 17.53673 -88.31119 16 ft 18 kts 258°
2026-04-16 21:31 17.53641 -88.31252 16 ft 19 kts 256°
2026-04-16 21:32 17.53609 -88.31391 16 ft 20 kts 258°
2026-04-16 21:32 17.53581 -88.31538 16 ft 21 kts 256°
2026-04-16 21:32 17.53548 -88.31682 16 ft 20 kts 256°
2026-04-16 21:32 17.53562 -88.31776 17 ft 9 kts 328°
2026-04-16 21:33 17.53616 -88.31786 18 ft 8 kts 352°
2026-04-16 21:33 17.53676 -88.31786 16 ft 11 kts 25°
2026-04-16 21:33 17.53755 -88.31536 15 ft 70 kts 78°
2026-04-16 21:33 17.53909 -88.30820 19 ft 128 kts 77°
2026-04-16 21:34 17.54108 -88.29791 282 ft 152 kts 78°
2026-04-16 21:34 17.54332 -88.28691 834 ft 162 kts 76°
2026-04-16 21:34 17.54587 -88.27490 1230 ft 179 kts 79°
2026-04-16 21:34 17.54941 -88.26174 1604 ft 197 kts 62°
2026-04-16 21:35 17.55872 -88.25025 1847 ft 220 kts 43°
2026-04-16 21:35 17.57215 -88.24147 2165 ft 242 kts 23°
2026-04-16 21:35 17.58957 -88.23859 2545 ft 263 kts
2026-04-16 21:35 17.60177 -88.23800 3069 ft 264 kts
2026-04-16 21:36 17.62019 -88.23734 3919 ft 266 kts
2026-04-16 21:36 17.63883 -88.23672 4718 ft 271 kts
2026-04-16 21:36 17.65786 -88.23605 5451 ft 273 kts
2026-04-16 21:36 17.67701 -88.23536 5843 ft 276 kts
2026-04-16 21:37 17.69624 -88.23464 5970 ft 276 kts
2026-04-16 21:37 17.71555 -88.23426 6004 ft 281 kts 359°
2026-04-16 21:37 17.73524 -88.23701 6594 ft 287 kts 353°
2026-04-16 21:37 17.75485 -88.24088 7511 ft 287 kts 351°
2026-04-16 21:38 17.77460 -88.24495 8333 ft 293 kts 352°
2026-04-16 21:38 17.79486 -88.24907 9153 ft 300 kts 352°
2026-04-16 21:38 17.81546 -88.25317 10036 ft 303 kts 351°
2026-04-16 21:38 17.83663 -88.25731 10603 ft 319 kts 352°
2026-04-16 21:39 17.85946 -88.26169 10787 ft 347 kts 352°
2026-04-16 21:39 17.88401 -88.26636 11016 ft 369 kts 352°
2026-04-16 21:39 17.90966 -88.27124 11547 ft 379 kts 352°
2026-04-16 21:39 17.93572 -88.27620 12309 ft 381 kts 352°
2026-04-16 21:40 17.96185 -88.28118 13140 ft 383 kts 352°
2026-04-16 21:40 17.98784 -88.28610 13850 ft 387 kts 352°
2026-04-16 21:40 18.01444 -88.29114 14496 ft 390 kts 352°
2026-04-16 21:40 18.04118 -88.29621 15207 ft 391 kts 352°
2026-04-16 21:41 18.06796 -88.30128 15917 ft 392 kts 352°
2026-04-16 21:41 18.09483 -88.30637 16585 ft 393 kts 352°
2026-04-16 21:41 18.12184 -88.31148 17239 ft 396 kts 352°
2026-04-16 21:41 18.14902 -88.31662 17845 ft 399 kts 352°
2026-04-16 21:42 18.17641 -88.32181 18438 ft 401 kts 352°
2026-04-16 21:42 18.20394 -88.32701 18931 ft 404 kts 352°
2026-04-16 21:42 18.23186 -88.33031 19439 ft 405 kts 359°
2026-04-16 21:42 18.26006 -88.33100 19921 ft 407 kts
2026-04-16 21:43 18.28850 -88.33087 20433 ft 409 kts
2026-04-16 21:43 18.31705 -88.33075 20869 ft 413 kts
2026-04-16 21:43 18.35139 -88.33095 21418 ft 416 kts
2026-04-16 21:43 18.46848 -88.33316 23126 ft 426 kts 359°
2026-04-16 21:44 18.58192 -88.37125 24467 ft 439 kts 332°
2026-04-16 21:44 18.69059 -88.43173 25691 ft 446 kts 334°
2026-04-16 21:44 18.80235 -88.49104 26794 ft 453 kts 333°
2026-04-16 21:44 18.91549 -88.55164 27877 ft 459 kts 333°
2026-04-16 21:45 19.03038 -88.61348 28798 ft 467 kts 333°
2026-04-16 21:45 19.14645 -88.67597 30036 ft 466 kts 332°
2026-04-16 21:45 19.26221 -88.73842 31197 ft 465 kts 332°
2026-04-16 21:45 19.37621 -88.80025 32875 ft 455 kts 331°
2026-04-16 21:46 19.48752 -88.86082 34609 ft 445 kts 330°
2026-04-16 21:46 19.59754 -88.92077 35785 ft 444 kts 330°
2026-04-16 21:46 19.70844 -88.98129 36089 ft 454 kts 330°
2026-04-16 21:46 19.82130 -89.04281 35987 ft 456 kts 330°
2026-04-16 21:47 19.93341 -89.10369 35936 ft 449 kts 330°
2026-04-16 21:47 20.15242 -89.22316 35947 ft 436 kts 329°
2026-04-16 21:48 20.36705 -89.34108 35984 ft 435 kts 329°
2026-04-16 21:48 20.58461 -89.46116 35992 ft 451 kts 329°
2026-04-16 21:49 20.80743 -89.58383 35970 ft 448 kts 329°
2026-04-16 21:49 21.02925 -89.69957 35969 ft 440 kts 333°
2026-04-16 21:50 21.25302 -89.80135 36003 ft 436 kts 332°
2026-04-16 21:50 21.47927 -89.90545 36030 ft 448 kts 333°
2026-04-16 21:51 21.70861 -90.01118 35968 ft 450 kts 332°
2026-04-16 21:51 21.93693 -90.11708 36008 ft 441 kts 332°
2026-04-16 21:52 22.15972 -90.22084 36043 ft 437 kts 332°
2026-04-16 21:52 22.38600 -90.32661 36063 ft 450 kts 332°
2026-04-16 21:53 22.61849 -90.43587 36017 ft 455 kts 332°
2026-04-16 21:53 22.84878 -90.54463 36028 ft 447 kts 332°
2026-04-16 21:54 23.07489 -90.65185 36049 ft 441 kts 332°
2026-04-16 21:54 23.30149 -90.75971 36075 ft 450 kts 332°
2026-04-16 21:55 23.53383 -90.87029 36050 ft 456 kts 332°
2026-04-16 21:55 23.76457 -90.98054 36045 ft 447 kts 332°
2026-04-16 21:56 23.98900 -91.08824 36053 ft 440 kts 331°
2026-04-16 21:56 24.21448 -91.19688 36090 ft 446 kts 331°
2026-04-16 21:57 24.44483 -91.30824 36074 ft 453 kts 331°
2026-04-16 21:57 24.66165 -91.43767 36039 ft 439 kts 324°
2026-04-16 21:58 24.87038 -91.57305 36074 ft 432 kts 324°
2026-04-16 21:58 25.07914 -91.70791 36096 ft 439 kts 324°
2026-04-16 21:59 25.29318 -91.84679 36075 ft 448 kts 324°
2026-04-16 21:59 25.50639 -91.98563 36056 ft 439 kts 323°
2026-04-16 22:00 25.71428 -92.12164 36073 ft 429 kts 323°
2026-04-16 22:00 25.92024 -92.25702 36091 ft 433 kts 323°
2026-04-16 22:01 26.12891 -92.39470 36098 ft 444 kts 323°
2026-04-16 22:01 26.34087 -92.53500 36063 ft 439 kts 322°
2026-04-16 22:02 26.54833 -92.67302 36089 ft 429 kts 322°
2026-04-16 22:02 26.75255 -92.80952 36089 ft 428 kts 322°
2026-04-16 22:03 26.97101 -92.92966 36108 ft 447 kts 329°
2026-04-16 22:03 27.19752 -93.04320 36066 ft 446 kts 328°
2026-04-16 22:04 27.42152 -93.15749 36062 ft 436 kts 328°
2026-04-16 22:04 27.53840 -93.21729 36075 ft 433 kts 327°
2026-04-16 22:05 27.59333 -93.24547 36078 ft 433 kts 327°
2026-04-16 22:05 27.64824 -93.27366 36078 ft 434 kts 327°
2026-04-16 22:06 27.70303 -93.30181 36074 ft 436 kts 327°
2026-04-16 22:06 27.78654 -93.34477 36076 ft 439 kts 327°
2026-04-16 22:07 27.84196 -93.37331 36076 ft 441 kts 327°
2026-04-16 22:07 27.89802 -93.40221 36074 ft 443 kts 327°
2026-04-16 22:08 27.95422 -93.43121 36075 ft 444 kts 327°
2026-04-16 22:08 28.01021 -93.46013 36076 ft 443 kts 327°
2026-04-16 22:09 28.06634 -93.48917 36073 ft 444 kts 327°
2026-04-16 22:09 28.12243 -93.51821 36076 ft 443 kts 327°
2026-04-16 22:10 28.17847 -93.54727 36075 ft 442 kts 327°
2026-04-16 22:10 28.23447 -93.57635 36069 ft 442 kts 327°
2026-04-16 22:11 28.29007 -93.60524 36067 ft 441 kts 327°
2026-04-16 22:11 28.34593 -93.63431 36089 ft 441 kts 327°
2026-04-16 22:12 28.40176 -93.66340 36074 ft 441 kts 327°
2026-04-16 22:12 28.45751 -93.69248 36069 ft 440 kts 326°
2026-04-16 22:13 28.51314 -93.72152 36070 ft 439 kts 326°
2026-04-16 22:13 28.56840 -93.75041 36071 ft 439 kts 326°
2026-04-16 22:14 28.62382 -93.77942 36099 ft 438 kts 326°
2026-04-16 22:14 28.67937 -93.80853 36083 ft 438 kts 326°
2026-04-16 22:15 28.73443 -93.83742 36066 ft 438 kts 327°
2026-04-16 22:15 28.78999 -93.86660 36069 ft 437 kts 327°
2026-04-16 22:16 28.84522 -93.89568 35499 ft 445 kts 327°
2026-04-16 22:16 28.87334 -93.91050 34843 ft 444 kts 327°
2026-04-16 22:16 28.90153 -93.92534 34103 ft 446 kts 327°
2026-04-16 22:17 28.92983 -93.94025 33149 ft 449 kts 328°
2026-04-16 22:17 28.95790 -93.95505 32292 ft 450 kts 328°
2026-04-16 22:17 28.98642 -93.97008 31397 ft 452 kts 328°
2026-04-16 22:17 29.01507 -93.98521 30476 ft 455 kts 328°
2026-04-16 22:18 29.04359 -94.00046 29731 ft 449 kts 326°
2026-04-16 22:18 29.06867 -94.02034 28966 ft 430 kts 310°
2026-04-16 22:18 29.08978 -94.04411 28296 ft 422 kts 309°
2026-04-16 22:18 29.11031 -94.06784 27606 ft 418 kts 309°
2026-04-16 22:19 29.13063 -94.09131 26937 ft 413 kts 309°
2026-04-16 22:19 29.15087 -94.11453 26275 ft 410 kts 309°
2026-04-16 22:19 29.17099 -94.13744 25616 ft 406 kts 310°
2026-04-16 22:19 29.19104 -94.16016 24958 ft 404 kts 310°
2026-04-16 22:20 29.21101 -94.18273 24281 ft 402 kts 310°
2026-04-16 22:20 29.23090 -94.20519 23614 ft 401 kts 310°
2026-04-16 22:20 29.25047 -94.22729 22843 ft 399 kts 310°
2026-04-16 22:20 29.27010 -94.24948 22166 ft 395 kts 310°
2026-04-16 22:21 29.28958 -94.27151 21497 ft 391 kts 311°
2026-04-16 22:21 29.30883 -94.29330 20873 ft 387 kts 311°
2026-04-16 22:21 29.32790 -94.31489 20235 ft 383 kts 311°
2026-04-16 22:21 29.34681 -94.33630 19609 ft 380 kts 311°
2026-04-16 22:22 29.36474 -94.35783 19397 ft 363 kts 303°
2026-04-16 22:22 29.37331 -94.37383 19263 ft 350 kts 294°
2026-04-16 22:22 29.38098 -94.40001 18731 ft 345 kts 279°
2026-04-16 22:22 29.38525 -94.43592 18012 ft 342 kts 276°
2026-04-16 22:23 29.38697 -94.45427 17626 ft 340 kts 275°
2026-04-16 22:23 29.38940 -94.48085 17076 ft 338 kts 275°
2026-04-16 22:23 29.39194 -94.50761 16529 ft 336 kts 276°
2026-04-16 22:23 29.39456 -94.53418 15996 ft 334 kts 276°
2026-04-16 22:24 29.39725 -94.56069 15473 ft 333 kts 276°
2026-04-16 22:24 29.39995 -94.58698 14966 ft 331 kts 276°
2026-04-16 22:24 29.40267 -94.61324 14451 ft 330 kts 276°
2026-04-16 22:24 29.40535 -94.63929 13943 ft 328 kts 276°
2026-04-16 22:25 29.40861 -94.66513 13380 ft 327 kts 284°
2026-04-16 22:25 29.41661 -94.68946 12874 ft 325 kts 292°
2026-04-16 22:25 29.42563 -94.71317 12358 ft 323 kts 292°
2026-04-16 22:25 29.43464 -94.73674 11844 ft 322 kts 292°
2026-04-16 22:26 29.44353 -94.76028 11330 ft 321 kts 292°
2026-04-16 22:26 29.45221 -94.78351 10821 ft 320 kts 292°
2026-04-16 22:26 29.46098 -94.80720 10521 ft 313 kts 293°
2026-04-16 22:26 29.46922 -94.82956 10319 ft 303 kts 293°
2026-04-16 22:27 29.47724 -94.85137 10194 ft 291 kts 293°
2026-04-16 22:27 29.48497 -94.87238 10059 ft 280 kts 293°
2026-04-16 22:27 29.49243 -94.89283 9843 ft 277 kts 293°
2026-04-16 22:27 29.49985 -94.91332 9617 ft 279 kts 293°
2026-04-16 22:28 29.50733 -94.93401 9375 ft 282 kts 293°
2026-04-16 22:28 29.51487 -94.95488 9155 ft 283 kts 292°
2026-04-16 22:28 29.52240 -94.97572 8904 ft 281 kts 292°
2026-04-16 22:28 29.52985 -94.99639 8663 ft 280 kts 292°
2026-04-16 22:29 29.53731 -95.01705 8406 ft 279 kts 292°
2026-04-16 22:29 29.54470 -95.03756 8173 ft 278 kts 292°
2026-04-16 22:29 29.55208 -95.05803 7940 ft 277 kts 291°
2026-04-16 22:29 29.55939 -95.07833 7712 ft 276 kts 291°
2026-04-16 22:30 29.56675 -95.09875 7487 ft 275 kts 291°
2026-04-16 22:30 29.57406 -95.11907 7252 ft 275 kts 291°
2026-04-16 22:30 29.58130 -95.13932 7036 ft 274 kts 289°
2026-04-16 22:30 29.58636 -95.16010 6898 ft 268 kts 280°
2026-04-16 22:31 29.58984 -95.18106 6768 ft 267 kts 278°
2026-04-16 22:31 29.59317 -95.20212 6613 ft 270 kts 278°
2026-04-16 22:31 29.59668 -95.22347 6381 ft 273 kts 279°
2026-04-16 22:31 29.60034 -95.24483 6127 ft 271 kts 279°
2026-04-16 22:32 29.60403 -95.26591 5875 ft 267 kts 279°
2026-04-16 22:32 29.60763 -95.28639 5634 ft 263 kts 279°
2026-04-16 22:32 29.61131 -95.30694 5379 ft 262 kts 280°
2026-04-16 22:32 29.61545 -95.32726 5142 ft 260 kts 281°
2026-04-16 22:33 29.61968 -95.34738 4908 ft 259 kts 281°
2026-04-16 22:33 29.62388 -95.36746 4656 ft 257 kts 281°
2026-04-16 22:33 29.62930 -95.38705 4395 ft 261 kts 297°
2026-04-16 22:33 29.64082 -95.40284 4147 ft 254 kts 311°
2026-04-16 22:34 29.65295 -95.41710 3878 ft 245 kts 311°
2026-04-16 22:34 29.66477 -95.43099 3629 ft 241 kts 311°
2026-04-16 22:34 29.67635 -95.44455 3376 ft 235 kts 311°
2026-04-16 22:34 29.68768 -95.45782 3122 ft 233 kts 310°
2026-04-16 22:35 29.69922 -95.47129 2907 ft 237 kts 311°
2026-04-16 22:35 29.71076 -95.48499 2661 ft 239 kts 310°
2026-04-16 22:35 29.72230 -95.49873 2418 ft 238 kts 310°
2026-04-16 22:35 29.73386 -95.51228 2176 ft 237 kts 315°
2026-04-16 22:36 29.74841 -95.52125 2025 ft 242 kts 349°
2026-04-16 22:36 29.76501 -95.52010 2023 ft 240 kts 19°
2026-04-16 22:36 29.78076 -95.51349 1993 ft 241 kts 25°
2026-04-16 22:36 29.79394 -95.50243 1989 ft 229 kts 57°
2026-04-16 22:37 29.79947 -95.48616 2006 ft 214 kts 92°
2026-04-16 22:37 29.79675 -95.47010 2016 ft 206 kts 115°
2026-04-16 22:37 29.79099 -95.45505 2014 ft 203 kts 122°
2026-04-16 22:37 29.78255 -95.44232 2008 ft 199 kts 136°
2026-04-16 22:38 29.77304 -95.43090 2012 ft 196 kts 139°
2026-04-16 22:38 29.76376 -95.41995 1986 ft 186 kts 139°
2026-04-16 22:38 29.75501 -95.40956 1981 ft 178 kts 140°
2026-04-16 22:38 29.74649 -95.39943 1988 ft 174 kts 138°
2026-04-16 22:39 29.73811 -95.38947 1999 ft 173 kts 137°
2026-04-16 22:39 29.72971 -95.37946 2013 ft 175 kts 137°
2026-04-16 22:39 29.72118 -95.36930 1999 ft 178 kts 137°
2026-04-16 22:39 29.71263 -95.35910 1784 ft 171 kts 136°
2026-04-16 22:40 29.70481 -95.34976 1590 ft 154 kts 137°
2026-04-16 22:40 29.69772 -95.34130 1435 ft 137 kts 140°
2026-04-16 22:40 29.69137 -95.33372 1250 ft 126 kts 141°
2026-04-16 22:40 29.68544 -95.32662 1055 ft 122 kts 140°
2026-04-16 22:41 29.67947 -95.31954 909 ft 124 kts 139°
2026-04-16 22:41 29.67345 -95.31237 753 ft 125 kts 139°
2026-04-16 22:41 29.66731 -95.30506 611 ft 128 kts 139°
2026-04-16 22:41 29.66105 -95.29759 415 ft 130 kts 138°
2026-04-16 22:42 29.65499 -95.29024 227 ft 121 kts 138°
2026-04-16 22:42 29.64940 -95.28362 60 ft 115 kts 137°
2026-04-16 22:42 29.64488 -95.27834 51 ft 63 kts 135°
2026-04-16 22:42 29.64286 -95.27593 51 ft 38 kts 132°
2026-04-16 22:43 29.64202 -95.27464 51 ft 16 kts 89°
2026-04-16 22:43 29.64274 -95.27377 51 ft 12 kts 30°
2026-04-16 22:43 29.64340 -95.27426 48 ft 12 kts 315°
2026-04-16 22:43 29.64432 -95.27533 49 ft 26 kts 312°
2026-04-16 22:44 29.64573 -95.27705 51 ft 29 kts 315°
2026-04-16 22:44 29.64709 -95.27866 51 ft 27 kts 314°
2026-04-16 22:44 29.64837 -95.28015 49 ft 25 kts 314°
2026-04-16 22:44 29.64954 -95.28155 47 ft 23 kts 314°
2026-04-16 22:45 29.65065 -95.28287 51 ft 23 kts 314°
2026-04-16 22:45 29.65145 -95.28325 51 ft 11 kts 53°
2026-04-16 22:45 29.65173 -95.28235 49 ft 16 kts 69°
2026-04-16 22:45 29.65232 -95.28100 48 ft 21 kts 47°
2026-04-16 22:46 29.65331 -95.27988 49 ft 20 kts 51°
2026-04-16 22:46 29.65382 -95.27861 51 ft 17 kts 71°
2026-04-16 22:46 29.65427 -95.27807 49 ft 3 kts 353°
2026-04-16 22:46 29.65446 -95.27813 51 ft 3 kts 342°
2026-04-16 22:47 29.65456 -95.27817 51 ft 0 kts 340°